Tracking 28341 objects as of 5-Dec-2023
HD Live streaming from Space Station
objects crossing your sky now

INSAT 3A

Track INSAT 3A now!
INSAT 3A is classified as:


NORAD ID: 27714
Int'l Code: 2003-013A
Perigee: 35,897.5 km
Apogee: 35,957.5 km
Inclination: 6.6 °
Period: 1,442.9 minutes
Semi major axis: 42298 km
RCS: 22.0529 m2 (large)
Launch date: April 9, 2003
Source: India (IND)
Launch site: FRENCH GUIANA (FRGUI)

12 C-band, 6 extended C-band, 6 Ku-band for voice, video and data transmission to West Asia, East Asia, India; augment present INSAT capacity for communication and meteorological services.
Your satellite tracking list
Your tracking list is empty




NASA's NSSDC Master Catalog

Two Line Element Set (TLE):
1 27714U 03013A   23339.08591150 -.00000009  00000-0  00000+0 0  9996
2 27714   6.5803  70.6556 0007097 276.4391 196.1351  0.99796609 75552
Source of the keplerian elements: AFSPC